Vertical_Velocity
-1 -1 -1 -0 -0 0 -1 -1 -2 -1 -1 -2 -2 -1 -2 -1 -1 -2 -4 -2 -5 -4 4 8 8 39 8 -59 -9 -3 -3 7 0 -7 -3 6 -11 2 4 -16 2 6 -0 -5 1
-1 -1 -1 -2 -0 0 -0 -1 -1 -2 -1 -0 -3 -2 -2 -2 -1 -3 1 -1 -3 -5 8 12 24 22 10 -73 -4 3 15 25 -4 -6 -6 8 -15 -8 -13 -14 -9 -3 6 -6 2
-1 0 -0 -2 -1 -0 -0 -0 -1 -1 -2 -1 -2 -2 -3 -1 -2 7 -3 -2 -3 -5 8 9 26 -74 -23 3 -4 21 12 38 16 9 1 -12 -13 9 4 3 -7 -7 -2 -2 1
-1 -1 -0 -0 -3 -2 -0 -0 -1 -1 -1 -2 -1 -1 -2 -1 -1 1 0 -0 -7 -5 6 6 -10 7 -2 6 13 8 38 -6 1 13 -7 13 23 8 6 -4 -3 -8 -10 -3 -5
-1 -2 -2 -1 -1 -3 -2 -0 -1 -1 -1 -1 -1 -0 -1 -6 -6 -1 4 -1 -5 -7 -3 -1 8 -31 7 -3 -5 16 13 12 10 6 -2 8 -9 -4 -3 -2 -6 -11 -1 -2 6
-1 -0 -1 -1 -0 -1 -2 -1 -0 -1 -1 -1 -1 -2 -4 -11 8 3 2 -1 -1 -5 -5 -11 -11 12 13 -34 8 -1 -6 33 3 -3 5 10 1 2 6 -3 -5 1 3 6 -7
-2 -2 -1 -1 -1 -0 -1 -1 -1 -2 -0 -1 -1 -3 -6 3 -8 1 -1 5 -1 2 -5 16 2 4 47 -35 -12 26 6 -6 -4 -12 -6 -2 7 -2 3 2 -7 7 6 -13 -5
-1 -1 -1 -1 -2 -1 -1 -1 -0 -1 -1 -1 -0 -3 -12 10 -1 -1 0 2 -1 -2 9 -5 38 -8 26 -21 -28 32 -20 9 -11 -4 -8 -5 0 5 7 4 -5 9 10 17 2
-1 -2 -1 -0 -1 -1 -1 -1 -1 -0 -1 -1 -1 -8 -4 4 -10 4 -3 1 3 4 -9 -9 16 0 -1 28 1 5 -1 1 3 9 -8 -8 -8 13 4 7 13 -0 -7 7 -0
-1 -1 -1 -0 0 -1 -0 0 -1 -0 -1 -1 -6 -0 -4 -10 -6 0 -6 4 -4 -5 6 -0 -3 -11 9 9 -5 -8 -2 -10 -16 8 4 4 -6 2 9 -2 -1 10 12 2 4
-1 -2 -2 -2 -1 -0 -0 1 -1 2 -1 2 4 4 -7 1 3 -1 1 -2 -4 6 -4 -0 7 -8 2 1 -49 22 -9 -4 -9 -3 -4 0 -2 -13 -3 -11 2 1 13 -16 45
-1 0 -1 -2 -2 -0 1 0 -1 -0 -9 -3 2 -11 -4 1 13 -4 12 1 -2 -4 -7 15 -5 14 8 4 13 -5 1 -16 -19 6 -18 27 3 -5 -12 4 18 14 -1 -18 6
-0 -1 0 -1 -0 -0 -1 -0 5 6 -6 -1 -2 -8 -16 -0 -0 -8 -0 0 -11 2 -3 -1 -2 20 -36 4 -3 24 -4 9 -9 11 5 -42 -15 -6 16 -10 -2 22 2 10 2
-1 -1 0 -1 -0 2 2 4 4 2 -6 -17 -11 -23 -9 7 4 -3 2 -8 -0 3 -13 -5 30 2 3 -38 6 13 -6 -15 37 6 7 -5 -4 -5 -23 -10 -29 10 1 -4 6
-1 -1 0 -1 1 -0 1 -7 2 4 3 9 -9 8 -0 -7 -2 -23 -4 23 -9 -12 37 -49 40 -27 5 -38 3 2 -5 7 -2 1 9 8 5 -2 -0 -8 -11 15 12 1 1
-1 -1 -0 -0 2 3 3 2 4 3 -13 16 -15 -12 -3 1 -12 8 -8 9 -6 6 8 4 26 8 3 -51 29 1 5 0 1 2 -3 -3 0 -2 8 -5 -5 -11 -19 20 -11
-0 -1 -1 1 0 1 -5 6 -1 2 15 8 -7 -8 -1 -1 -8 10 12 -3 -3 15 1 -3 -11 2 86 15 13 11 14 -2 -4 -4 -7 -5 -3 -9 -7 8 -3 -3 -12 20 0
-1 -0 0 1 -1 5 -3 -2 4 1 -6 35 -12 -0 1 -5 -9 -3 24 -3 7 -8 5 -5 -21 2 -3 15 -7 -43 -6 -0 -2 -1 -2 8 3 -12 -28 13 4 -19 -1 26 9
-1 -0 -1 -0 1 2 -1 -2 -6 9 25 12 34 5 4 -6 17 -10 -3 12 -6 -5 -2 9 -24 -7 49 56 73 -20 16 3 -5 -6 8 1 -9 -61 -2 -1 27 3 -15 -16 15
-0 -0 1 -2 2 0 1 -8 -9 -7 -6 10 12 19 -6 -11 -8 29 -4 1 -9 -6 -0 -45 -1 49 -23 -53 -18 25 5 3 -8 -4 -2 -7 -3 -17 -17 1 40 -34 27 -31 26
-1 0 -3 0 4 1 -10 -11 -6 -0 9 13 -6 -4 8 48 4 -16 -11 -17 3 -9 9 -10 24 -62 55 -9 -78 12 -3 8 3 1 -11 -1 -7 -11 -12 -10 26 -42 39 14 -10
-1 -5 -5 0 -5 1 -9 -4 3 -14 -3 -1 -18 5 -2 2 15 41 -21 -9 -7 -4 -15 -18 -7 -8 -26 14 15 -12 -5 6 -2 -9 7 10 -12 -6 -1 4 2 23 8 58 1
-0 -2 4 0 -6 -4 -5 -11 -6 -11 -6 5 9 -1 6 -3 -0 16 43 7 6 30 -24 -14 -12 5 -13 17 15 -5 -18 14 3 19 -3 -4 -27 -8 7 -8 8 7 -3 15 37
1 -2 16 -1 -2 -4 13 4 4 1 2 -18 -8 1 -0 1 4 -12 -1 13 21 -14 13 14 6 5 -10 -19 11 34 31 -6 -0 13 -1 -7 -10 2 -4 -11 -39 -1 -1 -15 -10
4 18 2 31 25 14 10 -6 -2 -2 27 0 -17 -9 -1 -3 -5 -5 21 -3 7 10 -4 4 -6 -4 -4 16 15 5 11 26 14 -2 -3 -7 -9 -2 33 -23 -26 -15 68 3 -9
-3 -6 -8 2 1 0 5 6 2 -12 20 27 2 -8 -13 14 16 -11 2 7 14 -6 3 1 -8 0 -12 -7 -0 -4 1 2 20 -13 24 -1 -1 -4 -6 -44 23 -15 -3 -3 -6
2 2 1 3 4 -4 -4 -0 3 12 -19 21 6 10 12 -3 -4 -5 4 -1 1 18 -4 -1 -5 -2 -13 -9 -3 -7 -5 -2 -5 10 5 -5 -3 3 -31 -14 38 -37 -0 22 5
Height
3164 3164 3164 3164 3164 3165 3165 3165 3165 3165 3166 3167 3169 3170 3172 3173 3174 3176 3177 3178 3178 3178 3180 3186 3190 3194 3170 3176 3181 3180 3183 3181 3182 3183 3185 3186 3186 3187 3186 3184 3186 3187 3187 3189 3191
3162 3162 3162 3163 3163 3164 3164 3164 3164 3165 3165 3166 3167 3169 3170 3172 3173 3176 3179 3178 3178 3179 3181 3188 3190 3190 3188 3184 3180 3185 3184 3182 3183 3182 3184 3185 3187 3187 3187 3184 3188 3190 3190 3189 3191
3160 3160 3161 3161 3161 3162 3163 3163 3163 3164 3164 3165 3166 3167 3169 3171 3173 3177 3178 3178 3178 3180 3182 3187 3187 3185 3191 3186 3187 3187 3188 3185 3184 3184 3185 3186 3186 3188 3187 3186 3185 3190 3193 3191 3192
3158 3157 3158 3159 3159 3159 3160 3161 3162 3162 3163 3164 3164 3166 3167 3169 3173 3174 3177 3179 3178 3180 3182 3184 3183 3187 3187 3188 3190 3186 3186 3184 3185 3184 3186 3188 3188 3189 3186 3187 3187 3186 3191 3193 3193
3154 3155 3155 3156 3156 3156 3158 3159 3159 3160 3161 3162 3163 3164 3165 3167 3169 3172 3176 3178 3179 3180 3181 3183 3185 3184 3185 3187 3186 3183 3183 3184 3186 3186 3187 3188 3188 3188 3188 3188 3189 3190 3191 3194 3195
3152 3152 3152 3152 3153 3154 3154 3156 3157 3157 3159 3160 3161 3162 3163 3165 3169 3171 3174 3177 3178 3179 3180 3180 3181 3182 3182 3180 3182 3185 3185 3185 3185 3186 3188 3189 3189 3188 3190 3190 3192 3194 3192 3193 3195
3150 3150 3149 3149 3149 3150 3151 3152 3154 3155 3156 3158 3159 3159 3160 3165 3164 3168 3172 3175 3176 3179 3180 3181 3178 3175 3182 3184 3184 3186 3186 3188 3186 3187 3187 3189 3190 3189 3190 3191 3194 3195 3195 3194 3194
3147 3147 3147 3147 3147 3147 3148 3149 3150 3152 3153 3155 3156 3157 3158 3163 3162 3165 3169 3173 3175 3177 3179 3180 3183 3181 3183 3185 3187 3189 3186 3185 3186 3187 3187 3188 3190 3190 3191 3192 3194 3195 3196 3196 3197
3144 3144 3144 3144 3144 3145 3145 3146 3147 3148 3150 3151 3153 3153 3156 3159 3159 3164 3167 3171 3174 3176 3177 3181 3181 3183 3184 3184 3188 3185 3185 3183 3184 3183 3185 3184 3187 3190 3190 3192 3193 3192 3192 3193 3195
3140 3140 3140 3141 3141 3142 3143 3143 3144 3145 3146 3148 3148 3155 3154 3156 3158 3162 3166 3170 3172 3174 3177 3180 3181 3181 3183 3185 3187 3184 3182 3181 3182 3182 3184 3185 3186 3189 3190 3191 3191 3192 3193 3192 3192
3137 3137 3137 3137 3138 3139 3141 3141 3144 3144 3142 3145 3147 3150 3152 3155 3157 3158 3164 3167 3170 3174 3175 3177 3179 3177 3180 3181 3184 3184 3183 3182 3181 3182 3183 3186 3188 3189 3188 3189 3189 3191 3188 3193 3193
3134 3134 3134 3135 3135 3137 3138 3139 3139 3141 3138 3138 3141 3143 3147 3150 3154 3155 3162 3166 3168 3170 3173 3176 3175 3174 3177 3177 3176 3179 3181 3178 3179 3181 3182 3183 3182 3182 3184 3186 3188 3188 3186 3187 3192
3131 3130 3131 3131 3133 3134 3136 3137 3138 3138 3134 3134 3136 3140 3144 3148 3150 3153 3158 3162 3165 3168 3171 3172 3174 3175 3178 3177 3178 3178 3178 3179 3179 3179 3178 3175 3177 3179 3183 3178 3186 3187 3184 3185 3186
3126 3126 3127 3128 3132 3132 3134 3136 3138 3137 3136 3129 3130 3133 3139 3145 3147 3151 3155 3161 3163 3166 3169 3170 3172 3172 3172 3176 3176 3175 3176 3177 3181 3179 3179 3178 3178 3173 3172 3168 3176 3182 3181 3180 3184
3122 3123 3124 3125 3128 3130 3131 3131 3136 3139 3140 3125 3126 3132 3136 3140 3146 3147 3153 3158 3159 3162 3167 3167 3167 3172 3171 3171 3170 3172 3172 3175 3173 3174 3176 3177 3175 3168 3169 3167 3169 3173 3177 3178 3179
3118 3119 3120 3123 3125 3128 3130 3132 3136 3140 3130 3125 3125 3128 3134 3137 3141 3145 3149 3154 3158 3160 3160 3163 3164 3164 3166 3168 3170 3174 3173 3170 3167 3166 3168 3170 3168 3168 3167 3164 3166 3170 3171 3172 3171
3114 3115 3117 3119 3122 3125 3127 3132 3136 3133 3123 3124 3124 3127 3131 3135 3138 3141 3146 3149 3152 3156 3155 3158 3156 3159 3165 3168 3168 3165 3169 3170 3168 3165 3168 3167 3165 3159 3155 3155 3162 3165 3164 3166 3173
3110 3111 3114 3116 3119 3123 3125 3130 3130 3122 3121 3124 3122 3126 3129 3134 3137 3138 3142 3144 3149 3153 3154 3155 3154 3155 3158 3160 3160 3168 3168 3169 3170 3166 3165 3165 3165 3157 3150 3153 3159 3157 3160 3163 3169
3107 3109 3111 3114 3117 3120 3124 3124 3119 3118 3121 3122 3121 3123 3127 3132 3135 3136 3137 3141 3144 3148 3151 3151 3148 3150 3153 3154 3157 3158 3163 3159 3160 3162 3161 3166 3165 3158 3151 3147 3151 3148 3155 3160 3168
3105 3107 3109 3111 3114 3117 3119 3115 3115 3117 3120 3120 3120 3121 3123 3126 3131 3134 3134 3136 3139 3143 3147 3146 3147 3145 3150 3152 3151 3156 3156 3156 3158 3166 3169 3173 3167 3161 3154 3148 3154 3145 3151 3156 3164
3105 3106 3107 3109 3113 3115 3113 3112 3115 3117 3119 3122 3119 3119 3119 3124 3123 3126 3130 3133 3135 3137 3141 3143 3146 3138 3149 3146 3154 3153 3151 3154 3156 3158 3161 3163 3159 3154 3151 3151 3153 3151 3157 3154 3158
3105 3106 3107 3110 3112 3112 3111 3113 3115 3114 3117 3120 3119 3118 3119 3119 3121 3122 3121 3125 3127 3130 3132 3136 3140 3140 3140 3143 3145 3144 3149 3150 3149 3156 3156 3154 3152 3150 3149 3149 3151 3156 3158 3163 3157
3103 3105 3107 3109 3108 3108 3111 3111 3113 3113 3114 3118 3119 3118 3118 3117 3118 3116 3118 3120 3122 3123 3125 3131 3133 3136 3136 3138 3141 3140 3140 3143 3145 3146 3144 3148 3149 3148 3148 3146 3149 3151 3154 3160 3159
3102 3105 3106 3105 3106 3106 3108 3109 3110 3113 3113 3114 3114 3114 3114 3114 3115 3113 3112 3113 3114 3119 3121 3124 3126 3129 3133 3133 3135 3136 3136 3137 3139 3139 3139 3143 3142 3144 3141 3141 3144 3144 3145 3154 3156
3099 3100 3099 3103 3104 3104 3106 3106 3105 3107 3109 3109 3112 3113 3113 3112 3111 3111 3112 3113 3113 3113 3117 3119 3122 3125 3126 3128 3130 3130 3132 3134 3134 3134 3135 3137 3138 3141 3144 3145 3148 3149 3150 3151 3155
3092 3092 3093 3096 3097 3098 3100 3102 3104 3104 3106 3109 3108 3109 3111 3111 3107 3106 3107 3111 3112 3112 3114 3116 3118 3121 3122 3124 3125 3126 3127 3129 3130 3130 3129 3131 3134 3135 3137 3140 3145 3148 3151 3149 3154
3090 3091 3091 3094 3094 3096 3098 3101 3102 3102 3100 3104 3102 3103 3104 3100 3101 3103 3105 3107 3109 3111 3112 3114 3116 3119 3119 3123 3125 3123 3125 3126 3126 3127 3125 3126 3127 3129 3129 3127 3135 3140 3149 3150 3153